sat.trackr.live / text

‹ back to catalog

STARLINK-32726

NORAD 62446 · 2024-251Q

PAYLOAD ACTIVE UNKNOWN

§ Identity

Operator
Country
US
Launch date
2024-12-29
Launch site
AFWTR
Launch vehicle
Mass (kg)
RCS (m²)

Purposes: comms

External: N2YO · Heavens-Above · Gunter

§ Orbital elements

Epoch: 2026-05-24T22:27:03.179808Z

Period
94.10 min
Inclination
53.1621°
Eccentricity
0.0001112
Mean motion
15.30213721 rev/d
Perigee alt
474.4 km
Apogee alt
475.9 km
Semi-major
6,853.3 km
B*
7.1146e-4
RAAN
341.0294°
Arg perigee
82.9211°
Mean anomaly
277.1916°
Rev number
7,931

§ Raw data

STARLINK-327261 62446U 24251Q   26144.93545347  .00020780  00000+0  71146-3 0  99912 62446  53.1621 341.0294 0001112  82.9211 277.1916 15.30213721 79311

JSON: /api/v1/satellites/62446 · /tle

For live sub-satellite position, see the globe view (requires WebGL).

§ Visibility from observer

Set your observer location to see the next 7 days of passes ≥ 10°. The values pass through the URL so the page stays shareable.

No JS? Fill the form by hand. The geolocation button needs JavaScript.